Weather History for Broken Bow, NE

Change the Weather History Date:

Tuesday, September 24, 2013

  Actual Average Record
Temperature  
Mean Temperature 60 °F 58 °F  
Max Temperature 73 °F 73 °F 91 °F (1901)
Min Temperature 47 °F 44 °F 23 °F (1985)
Degree Days  
Heating Degree Days 5 8  
Month to date heating degree days 43 97  
Cooling Degree Days 0 1  
Month to date cooling degree days 121 60  
Year to date cooling degree days 807 756  
Growing Degree Days 10 (Base 50)    
Moisture  
Dew Point 53 °F    
Average Humidity 72    
Maximum Humidity 100    
Minimum Humidity 44    
Precipitation  
Precipitation T in 0.07 in 2.02 in (1997)
Sea Level Pressure  
Sea Level Pressure 29.90 in    
Wind  
Wind Speed 8 mph (NNW)    
Max Wind Speed 20 mph    
Max Gust Speed 41 mph    
Visibility 10 miles    
Events Rain    
T = Trace of Precipitation, MM = Missing Value Source: NWS Daily Summary

Daily Weather History Graph

Daily Weather History Graph

Search for Another Location

Airport:

Trip Planner

Search our weather history database for the weather conditions in past years. The results will help you decide how hot, cold, wet, or windy it might be!

Date:

Astronomy

Sep. 24, 2013 Rise Set
Actual Time 7:28 AM CDT 7:31 PM CDT
Civil Twilight 7:00 AM CDT 7:59 PM CDT
Nautical Twilight 6:28 AM CDT 8:31 PM CDT
Astronomical Twilight 5:55 AM CDT 9:04 PM CDT
Moon 10:47 PM CDT (9/24) 12:47 PM CDT (9/24)
Length of Visible Light 12h 58m
Length of Day
12h 03m
Waning Gibbous, 73% of the Moon is Illuminated
Sep 24
Waning Gibbous
Sep 26
Last Quarter
Oct 4
New
Oct 11
First Quarter
Oct 18
Full

Hourly Weather History & Observations

Time (CDT) Temp. Dew Point Humidity Pressure Visibility Wind Dir Wind Speed Gust Speed Precip Events Conditions
12:53 AM 55.9 °F 55.9 °F 100% 29.77 in 10.0 mi NNW 13.8 mph 21.9 mph 0.00 in   Overcast
1:02 AM 55.4 °F 55.4 °F 100% 29.81 in 10.0 mi NNW 13.8 mph 21.9 mph N/A   Overcast
1:24 AM 55.4 °F 55.4 °F 100% 29.82 in 10.0 mi North 9.2 mph - N/A   Overcast
1:41 AM 55.4 °F 55.4 °F 100% 29.82 in 10.0 mi NNW 10.4 mph - N/A   Overcast
1:53 AM 55.9 °F 55.9 °F 100% 29.79 in 10.0 mi North 13.8 mph 18.4 mph N/A   Overcast
2:13 AM 57.2 °F 55.4 °F 94% 29.83 in 10.0 mi NNW 15.0 mph 19.6 mph N/A   Overcast
2:53 AM 55.9 °F 55.0 °F 97% 29.81 in 7.0 mi NNW 16.1 mph 21.9 mph 0.00 in Rain Light Rain
3:53 AM 55.9 °F 55.0 °F 97% 29.83 in 10.0 mi NNW 15.0 mph 23.0 mph 0.00 in   Overcast
4:53 AM 55.9 °F 55.0 °F 97% 29.85 in 10.0 mi NNW 11.5 mph 23.0 mph N/A   Overcast
5:53 AM 55.9 °F 55.0 °F 97% 29.87 in 10.0 mi NNW 15.0 mph 24.2 mph N/A   Overcast
6:53 AM 55.9 °F 54.0 °F 93% 29.90 in 10.0 mi NNW 10.4 mph 19.6 mph N/A   Overcast
7:53 AM 54.0 °F 53.1 °F 97% 29.94 in 10.0 mi NNW 11.5 mph 24.2 mph N/A   Overcast
8:53 AM 54.0 °F 52.0 °F 93% 29.95 in 10.0 mi NNW 12.7 mph 21.9 mph N/A   Overcast
9:53 AM 55.0 °F 52.0 °F 89% 29.98 in 10.0 mi NNW 9.2 mph 23.0 mph N/A   Overcast
10:20 AM 57.2 °F 53.6 °F 88% 30.00 in 10.0 mi North 16.1 mph 21.9 mph N/A   Mostly Cloudy
10:32 AM 57.2 °F 53.6 °F 88% 30.00 in 10.0 mi North 15.0 mph 21.9 mph N/A   Scattered Clouds
10:53 AM 61.0 °F 53.1 °F 75% 29.99 in 10.0 mi NNW 15.0 mph 20.7 mph N/A   Partly Cloudy
11:53 AM 66.0 °F 54.0 °F 65% 29.98 in 10.0 mi North 13.8 mph 21.9 mph N/A   Clear
12:53 PM 69.1 °F 53.1 °F 57% 29.97 in 10.0 mi North 10.4 mph 19.6 mph N/A   Partly Cloudy
1:53 PM 69.1 °F 53.1 °F 57% 29.96 in 10.0 mi NNW 12.7 mph - N/A   Partly Cloudy
2:53 PM 72.0 °F 53.1 °F 51% 29.94 in 10.0 mi North 10.4 mph - N/A   Partly Cloudy
3:53 PM 71.1 °F 52.0 °F 51% 29.93 in 10.0 mi North 6.9 mph - N/A   Partly Cloudy
4:53 PM 73.0 °F 50.0 °F 44% 29.92 in 10.0 mi NNE 6.9 mph - N/A   Clear
5:53 PM 73.0 °F 50.0 °F 44% 29.91 in 10.0 mi Variable 4.6 mph - N/A   Scattered Clouds
6:53 PM 70.0 °F 51.1 °F 51% 29.91 in 10.0 mi North 3.5 mph - N/A   Clear
7:53 PM 59.0 °F 54.0 °F 83% 29.92 in 10.0 mi Calm Calm - N/A   Clear
8:53 PM 54.0 °F 52.0 °F 93% 29.94 in 10.0 mi Calm Calm - N/A   Clear
9:53 PM 52.0 °F 51.1 °F 97% 29.94 in 10.0 mi Calm Calm - N/A   Clear
10:53 PM 48.9 °F 48.9 °F 100% 29.94 in 10.0 mi Calm Calm - N/A   Clear
11:53 PM 48.0 °F 48.0 °F 100% 29.92 in 10.0 mi Calm Calm - N/A   Clear